Location: Freistadt
(48.5112°N, 14.5013°E)
Time: 05:20:59
(UTC+02:00)

UWE-3 - Visible Passes

Search period start: 29 March 2023 00:00
Search period end: 08 April 2023 00:00
Orbit: 579 x 670 km, 97.7° (Epoch: 28 March)

Date Brightness Start Highest point End Pass type
(mag) Time Alt. Az. Time Alt. Az. Time Alt. Az.
29 Mar ? 02:40:15 10° ENE 02:41:44 12° E 02:41:44 12° E visible
29 Mar ? 04:14:18 10° NNE 04:18:50 84° WNW 04:19:00 81° WSW visible
29 Mar ? 05:52:28 10° NNW 05:54:17 12° NW 05:56:05 10° W visible
30 Mar ? 02:57:52 10° NE 03:00:48 18° E 03:00:48 18° E visible
30 Mar ? 04:33:08 10° N 04:37:32 55° WNW 04:38:04 51° W visible
31 Mar ? 03:16:04 10° NE 03:19:51 26° E 03:19:51 26° E visible
31 Mar ? 04:52:03 10° N 04:56:10 37° WNW 04:57:07 33° W visible
01 Apr ? 03:34:30 10° NNE 03:38:43 40° E 03:38:53 39° ESE visible
01 Apr ? 05:11:05 10° N 05:14:45 25° WNW 05:16:09 21° W visible
02 Apr ? 03:53:05 10° NNE 03:57:31 61° E 03:57:54 58° SE visible
02 Apr ? 05:30:17 10° NNW 05:33:16 18° WNW 05:35:10 14° W visible
03 Apr ? 02:38:05 10° ENE 02:39:19 11° E 02:39:39 11° E visible
03 Apr ? 04:11:46 10° NNE 04:16:14 87° WNW 04:16:55 63° SSW visible
03 Apr ? 05:49:51 10° NNW 05:51:43 13° NW 05:53:33 10° W visible
04 Apr ? 02:55:24 10° NE 02:58:16 17° E 02:58:40 17° E visible
04 Apr ? 04:30:32 10° N 04:34:53 57° WNW 04:35:56 44° WSW visible
05 Apr ? 03:13:30 10° NE 03:17:08 25° E 03:17:39 24° ESE visible
05 Apr ? 04:49:23 10° N 04:53:29 38° WNW 04:54:55 29° WSW visible
06 Apr ? 03:31:51 10° NNE 03:35:57 37° E 03:36:37 35° ESE visible
06 Apr ? 05:08:22 10° N 05:12:01 26° WNW 05:13:54 19° WSW visible
07 Apr ? 03:50:22 10° NNE 03:54:42 57° E 03:55:35 46° SSE visible
07 Apr ? 05:27:30 10° NNW 05:30:29 18° WNW 05:32:52 12° W visible
